Regional Weather Roundup
Issued by NWS

Home | Current Version | Previous Version | Graphics & Text | Print | Product List | Glossary Off
Versions: 1 2 3 4 5 6 7 8 9 10 11 12 13 14 15 16 17 18 19 20 21 22 23 24 25 26 27 28 29 30 31 32 33 34 35 36 37 38 39 40 41 42 43 44 45 46 47 48 49 50

588
ASUS43 KDMX 270706
RWRIA

WEATHER ROUNDUP FOR IOWA
NATIONAL WEATHER SERVICE DES MOINES IA
200 AM CDT FRI APR 27 2018

NOTE: "FAIR" INDICATES FEW OR NO CLOUDS BELOW 12,000 FEET WITH NO
SIGNIFICANT WEATHER AND/OR OBSTRUCTIONS TO VISIBILITY.

* - THESE STATIONS ARE NOT NWS STATIONS...THUS NOT UNDER NWS
QUALITY CONTROL.  THEY ALSO DO NOT REPORT WEATHER SUCH
AS PRECIPITATION OR FOG.

IAZ001>003-012>014-020>022-031>034-043>046-270800-
   NORTHWEST IOWA

CITY           SKY/WX    TMP DP  RH WIND       PRES   REMARKS
CARROLL *      CLEAR     41  32  70 W12       30.00F
CHEROKEE *     CLEAR     36  32  87 S5        30.00F WCI  32
DENISON *      CLEAR     36  30  80 CALM      30.04F
LE MARS *      CLEAR     34  30  86 S5        30.02F WCI  30
ORANGE CITY *  CLEAR     43  34  70 W5        30.00F
SHELDON *      CLEAR     37  32  81 SW9       29.97F WCI  31
SIOUX CITY     CLEAR     37  30  75 CALM      30.04F
SPENCER        CLEAR     33  29  85 W8        29.98F WCI  26
STORM LAKE *   CLEAR     39  32  75 W9        29.99F WCI  33
$$

IAZ055>058-069>071-079>083-090>094-270800-
   SOUTHWEST IOWA

CITY           SKY/WX    TMP DP  RH WIND       PRES   REMARKS
ATLANTIC *     CLEAR     36  30  80 CALM      30.03S
AUDUBON *      CLEAR     36  30  80 CALM      30.02F
CLARINDA *     CLEAR     37  30  75 CALM      30.06F
COUNCIL BLFS * CLEAR     48  30  49 NW7       30.04S
CRESTON *      CLEAR     39  32  75 NW9       30.02F WCI  33
HARLAN  *      CLEAR     37  30  75 CALM      30.06F
LAMONI         CLEAR     44  31  60 NW10      30.00S
RED OAK *      CLEAR     37  28  70 CALM      30.04F
SHENANDOAH *   CLEAR     36  28  75 SW5       30.06S WCI  32
$$

IAZ047>049-059>061-072>074-084-270800-
   CENTRAL IOWA

CITY           SKY/WX    TMP DP  RH WIND       PRES   REMARKS
AMES           CLEAR     44  31  60 NW10      29.97S
ANKENY *       CLEAR     45  32  61 NW7       29.98F
BOONE *        CLEAR     43  32  65 W8        29.96F
CHARITON *     CLEAR     43  32  65 NW12      29.97F
DES MOINES     CLEAR     46  32  58 NW9       29.98S
GRINNELL*      CLEAR     42  32  68 NW10      29.95S
KNOXVILLE *    CLEAR     43  30  61 NW9       29.95F
MARSHALLTOWN   CLEAR     41  33  73 NW10      29.93F
NEWTON *       CLEAR     46  30  53 NW14      29.95S
PELLA *        CLEAR     44  31  60 NW9       29.97S
PERRY *        FAIR      40  30  67 W8        29.99S WCI  34
$$

IAZ004>006-015-016-023>025-035-036-270800-
   NORTH CENTRAL IOWA

CITY           SKY/WX    TMP DP  RH WIND       PRES   REMARKS
ALGONA *       CLEAR     39  34  81 W8        29.96F WCI  34
CLARION *      CLEAR     36  30  80 CALM      29.96S
ESTHERVILLE    CLEAR     35  31  85 W10       29.96F WCI  27
FORT DODGE *   CLEAR     41  33  73 N5        29.98F
MASON CITY     CLEAR     39  31  72 NW12      29.95F WCI  32
FOREST CITY *  FAIR      41  32  70 NW6       29.94F
WEBSTER CITY * CLEAR     39  32  75 NW9       29.94F WCI  33
IOWA FALLS *   FAIR      45  32  60 N10       29.95F
$$

IAZ007>011-017>019-026>030-037>042-050>054-066-270800-
   NORTHEAST IOWA

CITY           SKY/WX    TMP DP  RH WIND       PRES   REMARKS
CEDAR RAPIDS   FAIR      45  34  65 NW12      29.89R
CHARLES CITY * FAIR      43  32  65 NW10G16   29.92F
CLINTON *      FAIR      45  36  70 NW12      29.83S
DECORAH *      FAIR      45  32  61 N6G13     29.89S
DUBUQUE        FAIR      49  34  56 N14       29.85R
MONTICELLO *   FAIR      46  36  66 NW9       29.86S
OELWEIN *      FAIR      43  36  75 NW13      29.90S
WATERLOO       FAIR      43  34  70 NW13      29.91F
$$

IAZ064-065-067-068-078-270800-
   EAST CENTRAL IOWA

CITY           SKY/WX    TMP DP  RH WIND       PRES   REMARKS
DAVENPORT      FAIR      47  35  63 W12       29.86S
IOWA CITY      FAIR      49  33  54 NW10      29.91R
MT. PLEASANT * CLEAR     50  32  50 NW12      29.90S
MUSCATINE *    FAIR      50  34  53 NW14      29.88S
QUAD CITIES    FAIR      54  36  50 NW15      29.83S
$$

IAZ062-063-075>077-085>089-095>099-270800-
   SOUTHEAST IOWA

CITY           SKY/WX    TMP DP  RH WIND       PRES   REMARKS
BURLINGTON     CLEAR     51  34  52 NW10      29.87F
FAIRFIELD *    CLEAR     45  32  61 W10       29.91S
FORT MADISON * CLEAR     52  37  58 NW9       29.90S
KEOKUK *       CLEAR     52  36  54 NW10G18   29.90S
OSKALOOSA *    FAIR      42  31  64 NW10      29.94S
CENTERVILLE *  FAIR      45  32  61 NW10      29.97F
OTTUMWA        CLEAR     46  31  55 NW12      29.94S
WASHINGTON *   CLEAR     46  34  61 NW14G21   29.91S
$$

ABBREVIATIONS USED IN REMARKS
   TC - TEMPERATURES IN CELSIUS
  WCI - WIND CHILL INDEX
   HX - HEAT INDEX
  VSB - VISIBILITY
$$





USA.gov is the U.S. government's official web portal to all federal, state and local government web resources and services.